Midland, MI

7:29 PM EDT on June 22, 2017 (GMT -0400)
Barstow

Weather History for KIKW - September, 2013

Change the Weather History Date:

Friday, September 20, 2013

  Actual Average (KMBS) Record (KMBS)
Temperature  
Mean Temperature 70 °F -  
Max Temperature 77 °F 69 °F 89 °F (1998)
Min Temperature 64 °F 46 °F 39 °F (2006)
Cooling Degree Days 6    
Growing Degree Days 20 (Base 50)    
Moisture  
Dew Point 67 °F    
Average Humidity 88    
Maximum Humidity 99    
Minimum Humidity 71    
Precipitation  
Precipitation 0.15 in - - ()
Sea Level Pressure  
Sea Level Pressure 29.76 in    
Wind  
Wind Speed 7 mph (SSW)    
Max Wind Speed 16 mph    
Max Gust Speed 28 mph    
Visibility 8 miles    
Events Rain    
Averages and records for this station are not official NWS values.
T = Trace of Precipitation, MM = Missing Value Source: NWS Daily Summary

Daily Weather History Graph

Daily Weather History Graph

Search for Another Location

Airport or City:

Trip Planner

Search our weather history database for the weather conditions in past years. The results will help you decide how hot, cold, wet, or windy it might be!

Date:

Astronomy

Sep. 20, 2013 Rise Set
Actual Time 7:22 AM EDT 7:37 PM EDT
Civil Twilight 6:53 AM EDT 8:06 PM EDT
Nautical Twilight 6:19 AM EDT 8:39 PM EDT
Astronomical Twilight 5:45 AM EDT 9:14 PM EDT
Moon 8:06 PM EDT (9/20) 8:39 AM EDT (9/20)
Length of Visible Light 13h 12m
Length of Day
12h 15m
Full, 98% of the Moon is Illuminated
Sep 20
Full
Sep 26
Last Quarter
Oct 4
New
Oct 11
First Quarter
Oct 18
Full

Hourly Weather History & Observations

Time (EDT) Temp. Dew Point Humidity Pressure Visibility Wind Dir Wind Speed Gust Speed Precip Events Conditions
12:14 AM 70.2 °F 65.5 °F 85% 29.85 in 10.0 mi SSE 6.9 mph - N/A   Mostly Cloudy
12:34 AM 70.2 °F 65.7 °F 86% 29.86 in 10.0 mi South 8.1 mph - N/A Rain Heavy Rain
12:54 AM 68.4 °F 67.1 °F 96% 29.84 in 10.0 mi SSE 6.9 mph - N/A Rain Light Rain
1:13 AM 68.4 °F 66.7 °F 95% 29.83 in 10.0 mi SSE 10.4 mph - N/A   Scattered Clouds
1:34 AM 68.4 °F 67.1 °F 96% 29.83 in 10.0 mi South 6.9 mph - N/A   Mostly Cloudy
1:54 AM 68.4 °F 67.1 °F 96% 29.83 in 10.0 mi SSE 4.6 mph - N/A   Scattered Clouds
2:13 AM 68.4 °F 66.6 °F 94% 29.83 in 10.0 mi SSE 3.5 mph - N/A   Clear
2:34 AM 68.9 °F 66.7 °F 93% 29.84 in 1.8 mi Calm Calm - N/A Rain Light Rain
2:54 AM 68.4 °F 67.3 °F 96% 29.84 in 10.0 mi South 8.1 mph - N/A   Overcast
3:13 AM 70.0 °F 68.2 °F 94% 29.83 in 10.0 mi SSW 6.9 mph - N/A   Overcast
3:34 AM 70.3 °F 68.0 °F 92% 29.81 in 10.0 mi SSE 5.8 mph - 0.02 in   Mostly Cloudy
3:54 AM 69.4 °F 67.6 °F 94% 29.79 in 7.0 mi SSE 4.6 mph - 0.08 in   Light Drizzle
4:14 AM 68.5 °F 67.3 °F 96% 29.79 in 7.0 mi SSE 4.6 mph - 0.05 in   Clear
4:34 AM 68.9 °F 67.6 °F 96% 29.78 in 7.0 mi SE 5.8 mph - 0.07 in   Scattered Clouds
4:53 AM 69.1 °F 68.0 °F 96% 29.79 in 7.0 mi South 8.1 mph - 0.07 in   Clear
5:14 AM 69.1 °F 68.0 °F 96% 29.78 in 5.0 mi South 5.8 mph - N/A   Mostly Cloudy
5:34 AM 68.9 °F 67.8 °F 96% 29.78 in 5.0 mi South 3.5 mph - N/A   Mostly Cloudy
5:54 AM 68.4 °F 67.3 °F 96% 29.78 in 5.0 mi South 4.6 mph - N/A   Scattered Clouds
6:14 AM 68.4 °F 67.6 °F 98% 29.77 in 5.0 mi Calm Calm - N/A   Mostly Cloudy
6:33 AM 68.4 °F 67.6 °F 98% 29.77 in 5.0 mi SSE 4.6 mph - N/A   Mostly Cloudy
6:54 AM 68.4 °F 67.6 °F 98% 29.76 in 4.0 mi SSE 3.5 mph - N/A   Scattered Clouds
7:14 AM 68.4 °F 68.0 °F 99% 29.76 in 4.0 mi South 4.6 mph - N/A   Clear
7:34 AM 68.9 °F 68.4 °F 98% 29.76 in 4.0 mi South 5.8 mph - N/A   Mostly Cloudy
7:54 AM 69.3 °F 68.9 °F 99% 29.77 in 3.0 mi South 5.8 mph - N/A   Mostly Cloudy
8:14 AM 70.2 °F 69.4 °F 98% 29.78 in 3.0 mi SSW 3.5 mph - N/A   Mostly Cloudy
8:34 AM 70.3 °F 69.6 °F 98% 29.78 in 3.0 mi SSW 6.9 mph - N/A   Scattered Clouds
8:54 AM 71.4 °F 70.5 °F 97% 29.78 in 4.0 mi SW 5.8 mph 9.2 mph N/A   Scattered Clouds
9:14 AM 72.3 °F 70.9 °F 95% 29.77 in 4.0 mi SW 6.9 mph - N/A   Mostly Cloudy
9:34 AM 72.5 °F 70.7 °F 94% 29.77 in 4.0 mi SSW 6.9 mph - N/A   Overcast
9:54 AM 72.5 °F 70.7 °F 94% 29.77 in 5.0 mi South 8.1 mph - N/A   Mostly Cloudy
10:14 AM 73.0 °F 71.1 °F 93% 29.77 in 5.0 mi SSW 6.9 mph - N/A   Scattered Clouds
10:34 AM 73.6 °F 70.9 °F 91% 29.77 in 5.0 mi South 9.2 mph - N/A   Clear
10:54 AM 73.9 °F 70.3 °F 88% 29.76 in 7.0 mi SSW 8.1 mph - N/A   Clear
11:14 AM 74.7 °F 69.8 °F 85% 29.76 in 7.0 mi SSW 10.4 mph - N/A   Scattered Clouds
11:34 AM 75.9 °F 68.9 °F 79% 29.76 in 7.0 mi SW 9.2 mph 17.3 mph N/A   Mostly Cloudy
11:54 AM 77.2 °F 68.7 °F 75% 29.76 in 10.0 mi WSW 10.4 mph 19.6 mph N/A   Scattered Clouds
12:14 PM 75.4 °F 65.3 °F 71% 29.76 in 10.0 mi WSW 16.1 mph 27.6 mph N/A   Mostly Cloudy
12:34 PM 75.2 °F 65.7 °F 72% 29.76 in 10.0 mi WSW 11.5 mph 19.6 mph N/A   Scattered Clouds
12:54 PM 75.2 °F 65.8 °F 73% 29.76 in 10.0 mi SW 11.5 mph 18.4 mph N/A   Mostly Cloudy
1:14 PM 75.0 °F 65.3 °F 72% 29.75 in 10.0 mi WSW 13.8 mph 21.9 mph N/A   Mostly Cloudy
1:34 PM 73.9 °F 64.9 °F 73% 29.75 in 10.0 mi WSW 13.8 mph - N/A   Mostly Cloudy
1:54 PM 73.4 °F 64.9 °F 75% 29.74 in 10.0 mi SW 12.7 mph 17.3 mph N/A   Overcast
2:14 PM 72.5 °F 64.4 °F 76% 29.75 in 10.0 mi SW 13.8 mph - N/A   Overcast
2:34 PM 72.1 °F 64.6 °F 77% 29.74 in 7.0 mi SW 11.5 mph 16.1 mph N/A Rain Light Rain
2:54 PM 72.5 °F 64.9 °F 77% 29.74 in 10.0 mi SW 6.9 mph - N/A   Overcast
3:14 PM 72.7 °F 64.9 °F 77% 29.74 in 7.0 mi SW 16.1 mph 20.7 mph N/A   Overcast
3:34 PM 72.7 °F 65.1 °F 77% 29.74 in 10.0 mi SW 8.1 mph - N/A   Mostly Cloudy
3:54 PM 73.6 °F 65.5 °F 76% 29.73 in 7.0 mi WSW 16.1 mph 19.6 mph N/A   Mostly Cloudy
4:14 PM 72.9 °F 64.9 °F 76% 29.73 in 7.0 mi SW 11.5 mph 19.6 mph N/A   Overcast
4:34 PM 72.3 °F 65.1 °F 78% 29.73 in 7.0 mi SSW 10.4 mph 16.1 mph N/A   Overcast
4:54 PM 72.1 °F 64.9 °F 78% 29.73 in 10.0 mi SW 9.2 mph - N/A   Overcast
5:14 PM 72.0 °F 65.1 °F 79% 29.72 in 7.0 mi SW 8.1 mph - N/A   Overcast
5:35 PM 71.6 °F 65.3 °F 80% 29.72 in 7.0 mi SW 8.1 mph - N/A   Overcast
5:54 PM 71.2 °F 64.9 °F 80% 29.72 in 10.0 mi SW 8.1 mph - N/A   Overcast
6:14 PM 71.1 °F 64.9 °F 81% 29.72 in 7.0 mi WSW 6.9 mph - N/A   Overcast
6:35 PM 71.1 °F 65.3 °F 82% 29.72 in 7.0 mi SW 8.1 mph - N/A   Overcast
6:54 PM 70.7 °F 64.9 °F 82% 29.72 in 7.0 mi SW 10.4 mph - N/A   Overcast
7:14 PM 70.2 °F 65.3 °F 85% 29.71 in 7.0 mi WSW 6.9 mph - N/A   Mostly Cloudy
7:34 PM 70.2 °F 65.5 °F 85% 29.71 in 10.0 mi WSW 6.9 mph - N/A   Scattered Clouds
7:54 PM 69.4 °F 65.3 °F 87% 29.71 in 10.0 mi WSW 5.8 mph - N/A   Scattered Clouds
8:14 PM 69.3 °F 65.5 °F 88% 29.71 in 10.0 mi WSW 5.8 mph - N/A   Scattered Clouds
8:35 PM 68.9 °F 65.3 °F 88% 29.71 in 10.0 mi WSW 4.6 mph - N/A   Scattered Clouds
8:54 PM 68.9 °F 64.6 °F 86% 29.72 in 10.0 mi WSW 5.8 mph - N/A   Scattered Clouds
9:14 PM 68.5 °F 63.7 °F 84% 29.72 in 10.0 mi West 3.5 mph - N/A   Scattered Clouds
9:34 PM 68.2 °F 63.9 °F 86% 29.72 in 10.0 mi WSW 3.5 mph - N/A   Clear
9:54 PM 67.1 °F 63.9 °F 89% 29.73 in 10.0 mi WSW 3.5 mph - N/A   Clear
10:14 PM 66.6 °F 64.4 °F 93% 29.73 in 10.0 mi SW 3.5 mph - N/A   Clear
10:34 PM 66.4 °F 64.4 °F 93% 29.73 in 10.0 mi SW 3.5 mph - N/A   Clear
10:54 PM 65.7 °F 63.7 °F 93% 29.73 in 10.0 mi Calm Calm - N/A   Clear
11:14 PM 65.3 °F 63.5 °F 94% 29.73 in 10.0 mi Calm Calm - N/A   Scattered Clouds
11:34 PM 64.9 °F 63.5 °F 95% 29.72 in 10.0 mi Calm Calm - N/A   Mostly Cloudy
11:54 PM 65.5 °F 63.7 °F 94% 29.72 in 10.0 mi Calm Calm - N/A   Overcast